Showing default

CALSPHERE 1, 900

Orbit data source: Space-Track

CALSPHERE 1, 900 is a payload satellite owned by NRL (US) in LEO that was launched on Tue, 06 Oct 1964 UTC via a THOR ABLESTAR launch vehicle from the Air Force Western Test Range (AFWTR). Payload-class satellites include a variety of spacecraft equipped with specific instruments for various scientific and technological missions. These include communications satellites like Starlink; space stations such as the ISS; scientific satellites like the Hubble; Earth observation satellites from companies like Planet Labs, Umbra, and HawkEye 360; GPS; miniature CubeSats for education and research; and military/defense satellites.

Loading next visibility...
Identifier
900, 1964-063C
Orbit
LEO
Country
Flag of USUS
Related business
Manufacturer
NRL
Mission
Operational spacecraft
Bus & Motor
NRL 14", Unknown motor
Mass
1 kg wet, 1 kg dry
Launch date (UTC)
1964-10-06 (61 years ago)
Launch vehicle
THOR ABLESTAR
Launch site
Air Force Western Test Range (AFWTR)
Object type
Payload
Rocket body
Debris
Shape & HBR
Unknown
Radar Cross Section
Small (<0.1 m²)

Expand to show TLE details & history
Last TLE update: 8 hours ago

TLE from 8 hours ago
0 CALSPHERE 1
1 00900U 64063C   26038.28341145  .00000737  00000-0  74313-3 0  9993
2 00900  90.2161  68.7599 0024043 329.5928 163.0280 13.76457203 53551
Epoch: 2026-02-07T06:48Z
TLE epoch observation values (Epoch: 2026-02-07T06:48:06.749Z)
Latitude
47.39111°
Longitude
9.55634°
Altitude
1,000.833 km
Speed
7.347 km/s
True Right ascension
16h 35m 58s
True Declination
47° 13' 31"
Sunlit
Object was in daylight at epoch
Visualization orbit readout
Latitude
Unknown
Longitude
Unknown
Altitude
Unknown
Speed
Unknown
Apparent Right ascension
Unknown
Apparent Declination
Unknown
Sunlit
N/A
Visualization observer readout
Local Sidereal Time
16:49:36
Azimuth
Unknown
Elevation
Unknown
Doppler factor
Unknown
Orbital elements
Apogee altitude
991.166 km
Perigee altitude
955.815 km
Semi-major axis
7,351.628 km
Eccentricity
0.0024
Inclination
90.2161°
RAAN
68.7599°
Arg. of periapsis
329.5928°
True anomaly
163.10819°
Mean anomaly
163.028°
Eccentric anomaly
163.06812°
Mean motion
3.44324 °/min
Orbital period
104.55 mins
BSTAR
0.00074313
Loading maneuver chart data...
Computing Atmospheric mass density...
Loading historical data...
Loading historical data...
Loading historical data...
Loading historical data...
Loading historical data...
Loading historical data...
Loading historical data...

Documentation

Showing up to 5 results
|